Starlink 32580

operational
NORAD ID: 62075 Int'l Des: 2024-217 Owner: SPXS Country: US Constellation: starlink
LEOCIRCULAR

About Starlink 32580

Description loading...

Live Position

Loading 3D Globe...

Upcoming Passes

Altitude History

Altitude vs Time

uPlot chart will show altitude changes over time

Two-Line Element Set

1 62075U 24217U 25306.48796978 .00028654 00000-0 97529-3 0 9990
2 62075 53.1616 52.1367 0002100 85.4619 274.6621 15.30217989 54129
Epoch: Nov 2, 2025 • Age: 15 hours

Current Status

Altitude 475.6 km
Velocity 7.63 km/s
Sub-Earth Point 27.44°N, 127.18°E
Launch Date Nov 24, 2024
Age 0.9 years
Type internet

Technical Details

Classification Payload
Mass 730.00 kg
Dry Mass 700.00 kg
Total Mass 730.00 kg
Length 0.30 m
Diameter 4.10 m
Span 29.00 m
Shape Box + pan
Manufacturer SPXS
Bus Type Starlink V2M
Phase Status In Orbit
Owner/State SPXS/US

Large Constellations

Loading constellations...